Time,TemperatureF,DewpointF,PressureIn,WindDirection,WindDirectionDegrees,WindSpeedMPH,WindSpeedGustMPH,Humidity,HourlyPrecipIn,Conditions,Clouds,dailyrainin,SoftwareType,DateUTC
2013-02-13 00:14:00,42.6,42.3,29.67,SSE,157,0.0,-999.0,99,-99.99,,,0.00,Acu-Link.com,2013-02-13 05:14:00,
2013-02-13 00:29:00,42.6,42.3,29.66,North,0,0.0,-999.0,99,-99.99,,,0.00,Acu-Link.com,2013-02-13 05:29:00,
2013-02-13 00:44:00,42.8,42.5,29.65,North,0,0.0,-999.0,99,-99.99,,,0.00,Acu-Link.com,2013-02-13 05:44:00,
2013-02-13 00:59:00,43.0,42.7,29.66,North,0,0.0,-999.0,99,-99.99,,,0.00,Acu-Link.com,2013-02-13 05:59:00,
2013-02-13 01:14:00,43.0,42.7,29.64,North,0,0.0,-999.0,99,-99.99,,,0.00,Acu-Link.com,2013-02-13 06:14:00,
2013-02-13 01:29:00,43.0,42.7,29.64,North,0,0.0,-999.0,99,-99.99,,,0.00,Acu-Link.com,2013-02-13 06:29:00,
2013-02-13 01:44:00,42.8,42.5,29.63,North,0,0.0,-999.0,99,-99.99,,,0.00,Acu-Link.com,2013-02-13 06:44:00,
2013-02-13 01:59:00,42.8,42.5,29.63,South,180,0.0,-999.0,99,-99.99,,,0.01,Acu-Link.com,2013-02-13 06:59:00,
2013-02-13 02:14:00,42.8,42.5,29.62,SSW,202,0.0,-999.0,99,-99.99,,,0.01,Acu-Link.com,2013-02-13 07:14:00,
2013-02-13 02:29:00,42.8,42.5,29.63,South,180,1.7,-999.0,99,-99.99,,,0.01,Acu-Link.com,2013-02-13 07:29:00,
2013-02-13 02:45:00,42.8,42.5,29.62,ESE,112,0.0,-999.0,99,-99.99,,,0.01,Acu-Link.com,2013-02-13 07:45:00,
2013-02-13 03:00:00,42.6,42.3,29.61,NE,45,0.0,-999.0,99,-99.99,,,0.01,Acu-Link.com,2013-02-13 08:00:00,
2013-02-13 03:15:00,42.6,42.3,29.61,West,270,0.0,-999.0,99,-99.99,,,0.01,Acu-Link.com,2013-02-13 08:15:00,
2013-02-13 03:30:00,42.6,42.3,29.60,SSE,157,0.0,-999.0,99,-99.99,,,0.01,Acu-Link.com,2013-02-13 08:30:00,
2013-02-13 03:45:00,42.6,42.3,29.58,North,0,0.0,-999.0,99,-99.99,,,0.02,Acu-Link.com,2013-02-13 08:45:00,
2013-02-13 04:00:00,42.6,42.3,29.58,North,0,0.0,-999.0,99,-99.99,,,0.02,Acu-Link.com,2013-02-13 09:00:00,
2013-02-13 04:16:00,42.6,42.3,29.58,North,0,0.0,-999.0,99,-99.99,,,0.02,Acu-Link.com,2013-02-13 09:16:00,
2013-02-13 04:31:00,42.4,42.1,29.56,South,180,0.0,-999.0,99,-99.99,,,0.02,Acu-Link.com,2013-02-13 09:31:00,
2013-02-13 04:46:00,42.4,42.1,29.55,South,180,0.0,-999.0,99,-99.99,,,0.02,Acu-Link.com,2013-02-13 09:46:00,
2013-02-13 05:01:00,42.4,42.1,29.55,East,90,0.0,-999.0,99,-99.99,,,0.02,Acu-Link.com,2013-02-13 10:01:00,
2013-02-13 05:16:00,42.4,42.1,29.55,SE,135,0.0,-999.0,99,-99.99,,,0.02,Acu-Link.com,2013-02-13 10:16:00,
2013-02-13 05:32:00,42.4,42.1,29.54,ENE,67,0.0,-999.0,99,-99.99,,,0.03,Acu-Link.com,2013-02-13 10:32:00,
2013-02-13 05:47:00,42.6,42.3,29.55,SSE,157,0.0,-999.0,99,-99.99,,,0.04,Acu-Link.com,2013-02-13 10:47:00,
2013-02-13 06:02:00,42.6,42.3,29.56,South,180,0.0,-999.0,99,-99.99,,,0.04,Acu-Link.com,2013-02-13 11:02:00,
2013-02-13 06:17:00,42.6,42.3,29.54,SE,135,0.0,-999.0,99,-99.99,,,0.05,Acu-Link.com,2013-02-13 11:17:00,
2013-02-13 06:32:00,42.8,42.5,29.55,South,180,0.0,-999.0,99,-99.99,,,0.06,Acu-Link.com,2013-02-13 11:32:00,
2013-02-13 06:47:00,42.8,42.5,29.56,NW,315,1.7,-999.0,99,-99.99,,,0.07,Acu-Link.com,2013-02-13 11:47:00,
2013-02-13 07:02:00,43.0,42.7,29.53,South,180,2.2,-999.0,99,-99.99,,,0.07,Acu-Link.com,2013-02-13 12:02:00,
2013-02-13 07:17:00,43.3,43.0,29.54,ESE,112,0.0,-999.0,99,-99.99,,,0.07,Acu-Link.com,2013-02-13 12:17:00,
2013-02-13 07:33:00,43.7,43.4,29.54,WSW,247,2.7,-999.0,99,-99.99,,,0.07,Acu-Link.com,2013-02-13 12:33:00,
2013-02-13 07:48:00,43.9,43.6,29.54,South,180,2.7,-999.0,99,-99.99,,,0.07,Acu-Link.com,2013-02-13 12:48:00,
2013-02-13 08:03:00,44.2,43.9,29.55,North,0,0.0,-999.0,99,-99.99,,,0.07,Acu-Link.com,2013-02-13 13:03:00,
2013-02-13 08:18:00,44.4,44.1,29.53,WNW,292,1.7,-999.0,99,-99.99,,,0.07,Acu-Link.com,2013-02-13 13:18:00,
2013-02-13 08:33:00,44.6,44.3,29.55,NW,315,1.1,-999.0,99,-99.99,,,0.08,Acu-Link.com,2013-02-13 13:33:00,
2013-02-13 08:48:00,44.8,44.5,29.57,SSW,202,2.2,-999.0,99,-99.99,,,0.08,Acu-Link.com,2013-02-13 13:48:00,
2013-02-13 09:03:00,45.3,45.0,29.57,North,0,1.7,-999.0,99,-99.99,,,0.08,Acu-Link.com,2013-02-13 14:03:00,
2013-02-13 09:18:00,45.3,45.0,29.57,SSE,157,3.2,-999.0,99,-99.99,,,0.08,Acu-Link.com,2013-02-13 14:18:00,
2013-02-13 09:33:00,45.7,45.4,29.56,WSW,247,7.8,-999.0,99,-99.99,,,0.09,Acu-Link.com,2013-02-13 14:33:00,
2013-02-13 09:49:00,45.9,45.6,29.56,SW,225,2.2,-999.0,99,-99.99,,,0.09,Acu-Link.com,2013-02-13 14:49:00,
2013-02-13 10:04:00,46.2,45.9,29.57,SW,225,2.2,-999.0,99,-99.99,,,0.10,Acu-Link.com,2013-02-13 15:04:00,
2013-02-13 10:19:00,46.4,46.1,29.57,SSW,202,2.2,-999.0,99,-99.99,,,0.11,Acu-Link.com,2013-02-13 15:19:00,
2013-02-13 10:34:00,46.8,46.5,29.57,SSW,202,3.2,-999.0,99,-99.99,,,0.11,Acu-Link.com,2013-02-13 15:34:00,
2013-02-13 10:49:00,46.9,46.6,29.58,NNE,22,1.7,-999.0,99,-99.99,,,0.11,Acu-Link.com,2013-02-13 15:49:00,
2013-02-13 11:04:00,47.1,46.6,29.58,SW,225,4.7,-999.0,98,-99.99,,,0.11,Acu-Link.com,2013-02-13 16:04:00,
2013-02-13 11:19:00,47.3,45.7,29.57,SSW,202,3.7,-999.0,94,-99.99,,,0.11,Acu-Link.com,2013-02-13 16:19:00,
2013-02-13 11:34:00,47.1,45.7,29.58,SW,225,4.2,-999.0,95,-99.99,,,0.11,Acu-Link.com,2013-02-13 16:34:00,
2013-02-13 11:49:00,47.3,44.8,29.59,SW,225,4.7,-999.0,91,-99.99,,,0.11,Acu-Link.com,2013-02-13 16:49:00,
2013-02-13 12:05:00,47.3,44.5,29.60,SSE,157,5.8,-999.0,90,-99.99,,,0.11,Acu-Link.com,2013-02-13 17:05:00,
2013-02-13 12:20:00,46.9,43.8,29.61,ESE,112,2.7,-999.0,89,-99.99,,,0.11,Acu-Link.com,2013-02-13 17:20:00,
2013-02-13 12:35:00,47.1,43.4,29.61,NE,45,3.2,-999.0,87,-99.99,,,0.11,Acu-Link.com,2013-02-13 17:35:00,
2013-02-13 12:50:00,47.3,43.6,29.61,SSW,202,3.7,-999.0,87,-99.99,,,0.11,Acu-Link.com,2013-02-13 17:50:00,
2013-02-13 13:05:00,47.1,43.4,29.62,SSW,202,4.2,-999.0,87,-99.99,,,0.11,Acu-Link.com,2013-02-13 18:05:00,
2013-02-13 13:20:00,46.8,43.4,29.61,ENE,67,1.7,-999.0,88,-99.99,,,0.11,Acu-Link.com,2013-02-13 18:20:00,
2013-02-13 13:35:00,46.4,43.6,29.62,South,180,3.7,-999.0,90,-99.99,,,0.11,Acu-Link.com,2013-02-13 18:35:00,
2013-02-13 13:50:00,47.1,42.8,29.61,SE,135,3.7,-999.0,85,-99.99,,,0.11,Acu-Link.com,2013-02-13 18:50:00,
2013-02-13 14:05:00,50.0,43.7,29.61,SW,225,2.7,-999.0,79,-99.99,,,0.11,Acu-Link.com,2013-02-13 19:05:00,
2013-02-13 14:21:00,48.2,42.0,29.62,SE,135,5.8,-999.0,79,-99.99,,,0.11,Acu-Link.com,2013-02-13 19:21:00,
2013-02-13 14:36:00,47.1,40.3,29.63,SSW,202,7.8,-999.0,77,-99.99,,,0.11,Acu-Link.com,2013-02-13 19:36:00,
2013-02-13 14:51:00,46.8,40.0,29.63,WSW,247,4.2,-999.0,77,-99.99,,,0.11,Acu-Link.com,2013-02-13 19:51:00,
2013-02-13 15:06:00,46.9,39.7,29.63,South,180,3.2,-999.0,76,-99.99,,,0.11,Acu-Link.com,2013-02-13 20:06:00,
2013-02-13 15:21:00,45.9,38.4,29.66,NNW,337,5.3,-999.0,75,-99.99,,,0.11,Acu-Link.com,2013-02-13 20:21:00,
2013-02-13 15:36:00,45.9,38.4,29.67,NNW,337,5.8,-999.0,75,-99.99,,,0.11,Acu-Link.com,2013-02-13 20:36:00,
2013-02-13 15:51:00,45.3,38.2,29.68,NNW,337,2.7,-999.0,76,-99.99,,,0.11,Acu-Link.com,2013-02-13 20:51:00,
2013-02-13 16:06:00,44.2,37.5,29.70,North,0,4.7,-999.0,77,-99.99,,,0.11,Acu-Link.com,2013-02-13 21:06:00,
2013-02-13 16:21:00,43.9,37.5,29.71,SSW,202,2.7,-999.0,78,-99.99,,,0.11,Acu-Link.com,2013-02-13 21:21:00,
2013-02-13 16:37:00,43.5,37.7,29.72,SE,135,3.7,-999.0,80,-99.99,,,0.11,Acu-Link.com,2013-02-13 21:37:00,
2013-02-13 16:52:00,42.4,37.3,29.72,WNW,292,5.8,-999.0,82,-99.99,,,0.11,Acu-Link.com,2013-02-13 21:52:00,
2013-02-13 17:07:00,41.7,36.9,29.73,WNW,292,2.7,-999.0,83,-99.99,,,0.11,Acu-Link.com,2013-02-13 22:07:00,
2013-02-13 17:22:00,41.5,37.3,29.74,NW,315,2.2,-999.0,85,-99.99,,,0.11,Acu-Link.com,2013-02-13 22:22:00,
2013-02-13 17:37:00,41.5,37.3,29.74,NNE,22,0.0,-999.0,85,-99.99,,,0.11,Acu-Link.com,2013-02-13 22:37:00,
2013-02-13 17:52:00,41.4,37.2,29.75,ESE,112,0.0,-999.0,85,-99.99,,,0.11,Acu-Link.com,2013-02-13 22:52:00,
2013-02-13 18:07:00,41.4,37.2,29.76,North,0,0.0,-999.0,85,-99.99,,,0.11,Acu-Link.com,2013-02-13 23:07:00,
2013-02-13 18:22:00,41.4,36.9,29.77,ENE,67,2.2,-999.0,84,-99.99,,,0.11,Acu-Link.com,2013-02-13 23:22:00,
2013-02-13 18:37:00,41.4,37.2,29.78,ENE,67,0.0,-999.0,85,-99.99,,,0.11,Acu-Link.com,2013-02-13 23:37:00,
2013-02-13 18:53:00,41.2,36.7,29.78,ESE,112,0.0,-999.0,84,-99.99,,,0.11,Acu-Link.com,2013-02-13 23:53:00,
2013-02-13 19:08:00,41.2,37.0,29.79,North,0,0.0,-999.0,85,-99.99,,,0.11,Acu-Link.com,2013-02-14 00:08:00,
2013-02-13 19:23:00,40.8,36.9,29.79,ESE,112,0.0,-999.0,86,-99.99,,,0.11,Acu-Link.com,2013-02-14 00:23:00,
2013-02-13 19:38:00,40.8,38.4,29.79,East,90,0.0,-999.0,91,-99.99,,,0.11,Acu-Link.com,2013-02-14 00:38:00,
2013-02-13 19:53:00,40.6,37.3,29.79,East,90,0.0,-999.0,88,-99.99,,,0.11,Acu-Link.com,2013-02-14 00:53:00,
2013-02-13 20:08:00,40.5,36.6,29.78,ESE,112,0.0,-999.0,86,-99.99,,,0.11,Acu-Link.com,2013-02-14 01:08:00,
2013-02-13 20:24:00,40.3,38.4,29.79,ESE,112,0.0,-999.0,93,-99.99,,,0.11,Acu-Link.com,2013-02-14 01:24:00,
2013-02-13 20:39:00,39.9,37.2,29.79,East,90,0.0,-999.0,90,-99.99,,,0.11,Acu-Link.com,2013-02-14 01:39:00,
2013-02-13 20:54:00,40.1,38.2,29.80,East,90,1.1,-999.0,93,-99.99,,,0.11,Acu-Link.com,2013-02-14 01:54:00,
2013-02-13 21:09:00,40.1,37.1,29.81,NNE,22,0.0,-999.0,89,-99.99,,,0.11,Acu-Link.com,2013-02-14 02:09:00,
2013-02-13 21:24:00,40.5,36.9,29.81,ENE,67,0.0,-999.0,87,-99.99,,,0.11,Acu-Link.com,2013-02-14 02:24:00,
2013-02-13 21:39:00,40.5,36.6,29.81,NNE,22,0.0,-999.0,86,-99.99,,,0.11,Acu-Link.com,2013-02-14 02:39:00,
2013-02-13 21:54:00,40.8,36.3,29.82,South,180,0.0,-999.0,84,-99.99,,,0.11,Acu-Link.com,2013-02-14 02:54:00,
2013-02-13 22:09:00,41.2,35.8,29.83,ESE,112,0.0,-999.0,81,-99.99,,,0.11,Acu-Link.com,2013-02-14 03:09:00,
2013-02-13 22:24:00,41.2,36.1,29.83,NNE,22,2.7,-999.0,82,-99.99,,,0.11,Acu-Link.com,2013-02-14 03:24:00,
2013-02-13 22:40:00,41.2,36.4,29.83,SE,135,1.7,-999.0,83,-99.99,,,0.11,Acu-Link.com,2013-02-14 03:40:00,
2013-02-13 22:55:00,41.2,35.8,29.84,East,90,2.7,-999.0,81,-99.99,,,0.11,Acu-Link.com,2013-02-14 03:55:00,
2013-02-13 23:10:00,41.2,35.5,29.85,NE,45,2.7,-999.0,80,-99.99,,,0.11,Acu-Link.com,2013-02-14 04:10:00,
2013-02-13 23:25:00,41.2,35.5,29.85,NNE,22,2.7,-999.0,80,-99.99,,,0.11,Acu-Link.com,2013-02-14 04:25:00,
2013-02-13 23:40:00,41.0,35.0,29.85,WNW,292,3.7,-999.0,79,-99.99,,,0.11,Acu-Link.com,2013-02-14 04:40:00,
2013-02-13 23:55:00,41.0,35.6,29.85,ESE,112,0.0,-999.0,81,-99.99,,,0.11,Acu-Link.com,2013-02-14 04:55:00,